User: anonymous   Login
Location: Balagbag Mahabang Kahoy
(14.1562°N, 120.9200°E)
Time: 05:01:35
(UTC+00:00)
Language:

CZ-3A R/B - Orbit

View from above orbital plane
View from above orbital plane
View from above satellite
View from above satellite

Ground track
Ground track

The orbit is defined by the following mean orbital elements,

1 40368U          26074.14713229 +.00000000 +00000-0 +64446-3 0 00009
2 40368  24.7133  73.5703 7270003 182.8020 168.0416  2.26130839    08
Epoch (UTC): 15 March 2026 03:31:52
Eccentricity: 0.7270003
inclination: 24.7133°
perigee height: 315 km
apogee height: 35965 km
right ascension of ascending node: 73.5703°
argument of perigee: 182.8020°
revolutions per day: 2.26130839
mean anomaly at epoch: 168.0416°

The dashed part of the orbit path shows where the satellite is in the earth's shadow,  

DLR